Time,TemperatureF,DewpointF,PressureIn,WindDirection,WindDirectionDegrees,WindSpeedMPH,WindSpeedGustMPH,Humidity,HourlyPrecipIn,Conditions,Clouds,dailyrainin,SoftwareType,DateUTC
2013-06-06 00:02:00,19.0,10.0,-100.00,North,0,0.0,-999.0,66,-99.99,,,-99.99,,2013-06-06 05:02:00,
2013-06-06 00:12:00,15.0,15.0,-100.00,North,0,0.0,-999.0,97,-99.99,,,-99.99,,2013-06-06 05:12:00,
2013-06-06 00:22:00,27.0,13.0,-100.00,North,0,0.0,-999.0,56,-99.99,,,-99.99,,2013-06-06 05:22:00,
2013-06-06 00:32:00,15.0,-28.0,-100.00,North,0,0.0,-999.0,12,-99.99,,,-99.99,,2013-06-06 05:32:00,
2013-06-06 00:42:00,22.0,-23.0,-100.00,North,0,0.0,-999.0,12,-99.99,,,-99.99,,2013-06-06 05:42:00,
2013-06-06 00:52:00,46.0,41.0,-100.00,North,0,0.0,-999.0,82,-99.99,,,-99.99,,2013-06-06 05:52:00,
2013-06-06 01:02:00,39.0,32.0,-100.00,North,0,0.0,-999.0,75,-99.99,,,-99.99,,2013-06-06 06:02:00,
2013-06-06 01:12:00,33.0,31.0,-100.00,North,0,0.0,-999.0,95,-99.99,,,-99.99,,2013-06-06 06:12:00,
2013-06-06 01:22:00,55.0,52.0,-100.00,North,0,0.0,-999.0,91,-99.99,,,-99.99,,2013-06-06 06:22:00,
2013-06-06 01:32:00,55.0,50.0,-100.00,North,0,0.0,-999.0,83,-99.99,,,-99.99,,2013-06-06 06:32:00,
2013-06-06 01:42:00,55.0,41.0,-100.00,North,0,0.0,-999.0,59,-99.99,,,-99.99,,2013-06-06 06:42:00,
2013-06-06 01:52:00,55.0,34.0,-100.00,North,0,0.0,-999.0,46,-99.99,,,-99.99,,2013-06-06 06:52:00,
2013-06-06 02:02:00,53.0,25.0,-100.00,North,0,0.0,-999.0,34,-99.99,,,-99.99,,2013-06-06 07:02:00,
2013-06-06 02:12:00,51.0,27.0,-100.00,North,0,0.0,-999.0,39,-99.99,,,-99.99,,2013-06-06 07:12:00,
2013-06-06 02:32:00,56.0,28.0,-100.00,North,0,0.0,-999.0,33,-99.99,,,-99.99,,2013-06-06 07:32:00,
2013-06-06 02:42:00,57.0,26.0,-100.00,North,0,0.0,-999.0,30,-99.99,,,-99.99,,2013-06-06 07:42:00,
2013-06-06 02:52:00,57.0,18.0,-100.00,North,0,0.0,-999.0,21,-99.99,,,-99.99,,2013-06-06 07:52:00,
2013-06-06 03:02:00,58.0,20.0,-100.00,North,0,0.0,-999.0,23,-99.99,,,-99.99,,2013-06-06 08:02:00,
2013-06-06 03:12:00,58.0,18.0,-100.00,North,0,0.0,-999.0,21,-99.99,,,-99.99,,2013-06-06 08:12:00,
2013-06-06 03:22:00,58.0,48.0,-100.00,North,0,0.0,-999.0,68,-99.99,,,-99.99,,2013-06-06 08:22:00,
2013-06-06 03:32:00,58.0,54.0,-100.00,North,0,0.0,-999.0,86,-99.99,,,-99.99,,2013-06-06 08:32:00,
2013-06-06 03:42:00,58.0,55.0,-100.00,North,0,0.0,-999.0,89,-99.99,,,-99.99,,2013-06-06 08:42:00,
2013-06-06 03:52:00,58.0,54.0,-100.00,North,0,0.0,-999.0,89,-99.99,,,-99.99,,2013-06-06 08:52:00,
2013-06-06 04:02:00,57.0,54.0,-100.00,North,0,0.0,-999.0,90,-99.99,,,-99.99,,2013-06-06 09:02:00,
2013-06-06 04:12:00,57.0,54.0,-100.00,North,0,0.0,-999.0,90,-99.99,,,-99.99,,2013-06-06 09:12:00,
2013-06-06 04:22:00,57.0,54.0,-100.00,North,0,0.0,-999.0,91,-99.99,,,-99.99,,2013-06-06 09:22:00,
2013-06-06 04:33:00,57.0,53.0,-100.00,North,0,0.0,-999.0,87,-99.99,,,-99.99,,2013-06-06 09:33:00,
2013-06-06 04:43:00,56.0,52.0,-100.00,North,0,0.0,-999.0,84,-99.99,,,-99.99,,2013-06-06 09:43:00,
2013-06-06 04:53:00,56.0,52.0,-100.00,North,0,0.0,-999.0,84,-99.99,,,-99.99,,2013-06-06 09:53:00,
2013-06-06 06:02:00,55.0,10.0,-100.00,North,0,0.0,-999.0,16,-99.99,,,-99.99,,2013-06-06 11:02:00,
2013-06-06 06:12:00,55.0,11.0,-100.00,North,0,0.0,-999.0,17,-99.99,,,-99.99,,2013-06-06 11:12:00,
2013-06-06 06:22:00,54.0,12.0,-100.00,North,0,0.0,-999.0,18,-99.99,,,-99.99,,2013-06-06 11:22:00,
2013-06-06 06:32:00,54.0,16.0,-100.00,North,0,0.0,-999.0,22,-99.99,,,-99.99,,2013-06-06 11:32:00,
2013-06-06 06:42:00,54.0,42.0,-100.00,North,0,0.0,-999.0,64,-99.99,,,-99.99,,2013-06-06 11:42:00,
2013-06-06 06:52:00,53.0,47.0,-100.00,North,0,0.0,-999.0,78,-99.99,,,-99.99,,2013-06-06 11:52:00,
2013-06-06 07:03:00,53.0,46.0,-100.00,North,0,0.0,-999.0,78,-99.99,,,-99.99,,2013-06-06 12:03:00,
2013-06-06 07:12:00,53.0,47.0,-100.00,North,0,0.0,-999.0,80,-99.99,,,-99.99,,2013-06-06 12:12:00,
2013-06-06 07:23:00,54.0,48.0,-100.00,North,0,0.0,-999.0,80,-99.99,,,-99.99,,2013-06-06 12:23:00,
2013-06-06 07:33:00,54.0,48.0,-100.00,North,0,0.0,-999.0,80,-99.99,,,-99.99,,2013-06-06 12:33:00,
2013-06-06 07:42:00,54.0,48.0,-100.00,North,0,0.0,-999.0,79,-99.99,,,-99.99,,2013-06-06 12:42:00,
2013-06-06 07:52:00,55.0,46.0,-100.00,North,0,0.0,-999.0,72,-99.99,,,-99.99,,2013-06-06 12:52:00,
2013-06-06 08:03:00,55.0,47.0,-100.00,North,0,0.0,-999.0,75,-99.99,,,-99.99,,2013-06-06 13:03:00,
2013-06-06 08:13:00,55.0,45.0,-100.00,North,0,0.0,-999.0,69,-99.99,,,-99.99,,2013-06-06 13:13:00,
2013-06-06 08:22:00,56.0,33.0,-100.00,North,0,0.0,-999.0,42,-99.99,,,-99.99,,2013-06-06 13:22:00,
2013-06-06 08:32:00,57.0,31.0,-100.00,North,0,0.0,-999.0,37,-99.99,,,-99.99,,2013-06-06 13:32:00,
2013-06-06 08:43:00,57.0,27.0,-100.00,North,0,0.0,-999.0,32,-99.99,,,-99.99,,2013-06-06 13:43:00,
2013-06-06 08:52:00,57.0,27.0,-100.00,North,0,0.0,-999.0,32,-99.99,,,-99.99,,2013-06-06 13:52:00,
2013-06-06 09:03:00,58.0,41.0,-100.00,North,0,0.0,-999.0,54,-99.99,,,-99.99,,2013-06-06 14:03:00,
2013-06-06 09:13:00,58.0,45.0,-100.00,North,0,0.0,-999.0,62,-99.99,,,-99.99,,2013-06-06 14:13:00,
2013-06-06 09:22:00,60.0,43.0,-100.00,North,0,0.0,-999.0,54,-99.99,,,-99.99,,2013-06-06 14:22:00,
2013-06-06 09:33:00,60.0,52.0,-100.00,North,0,0.0,-999.0,75,-99.99,,,-99.99,,2013-06-06 14:33:00,
2013-06-06 09:43:00,52.0,40.0,-100.00,North,0,0.0,-999.0,62,-99.99,,,-99.99,,2013-06-06 14:43:00,
2013-06-06 09:52:00,52.0,40.0,-100.00,North,0,0.0,-999.0,62,-99.99,,,-99.99,,2013-06-06 14:52:00,
2013-06-06 10:03:00,60.0,40.0,-100.00,North,0,0.0,-999.0,48,-99.99,,,-99.99,,2013-06-06 15:03:00,
2013-06-06 10:13:00,31.0,-6.0,-100.00,North,0,0.0,-999.0,19,-99.99,,,-99.99,,2013-06-06 15:13:00,
2013-06-06 10:23:00,61.0,22.0,-100.00,North,0,0.0,-999.0,22,-99.99,,,-99.99,,2013-06-06 15:23:00,
2013-06-06 10:33:00,61.0,22.0,-100.00,North,0,0.0,-999.0,22,-99.99,,,-99.99,,2013-06-06 15:33:00,
2013-06-06 10:53:00,61.0,56.0,-100.00,North,0,0.0,-999.0,86,-99.99,,,-99.99,,2013-06-06 15:53:00,
2013-06-06 11:03:00,64.0,57.0,-100.00,North,-999,0.0,-999.0,80,-99.99,,,-99.99,,2013-06-06 16:03:00,
2013-06-06 11:12:00,35.0,29.0,-100.00,North,-999,0.0,-999.0,79,-99.99,,,-99.99,,2013-06-06 16:12:00,
2013-06-06 11:23:00,63.0,55.0,-100.00,North,0,0.0,-999.0,74,-99.99,,,-99.99,,2013-06-06 16:23:00,
2013-06-06 11:43:00,36.0,30.0,-100.00,North,0,0.0,-999.0,78,-99.99,,,-99.99,,2013-06-06 16:43:00,
2013-06-06 11:52:00,36.0,30.0,-100.00,North,0,0.0,-999.0,78,-99.99,,,-99.99,,2013-06-06 16:52:00,
2013-06-06 12:03:00,35.0,29.0,-100.00,North,0,0.0,-999.0,80,-99.99,,,-99.99,,2013-06-06 17:03:00,
2013-06-06 12:13:00,43.0,37.0,-100.00,North,0,0.0,-999.0,80,-99.99,,,-99.99,,2013-06-06 17:13:00,
2013-06-06 12:33:00,-33.0,-38.0,-100.00,North,0,0.0,-999.0,77,-99.99,,,-99.99,,2013-06-06 17:33:00,
2013-06-06 12:43:00,-34.0,-40.0,-100.00,North,-999,0.0,-999.0,69,-99.99,,,-99.99,,2013-06-06 17:43:00,
2013-06-06 12:52:00,-33.0,-40.0,-100.00,North,0,0.0,-999.0,66,-99.99,,,-99.99,,2013-06-06 17:52:00,
2013-06-06 13:03:00,-33.0,-40.0,-100.00,North,0,0.0,-999.0,67,-99.99,,,-99.99,,2013-06-06 18:03:00,
2013-06-06 13:13:00,-34.0,-47.0,-100.00,North,0,0.0,-999.0,48,-99.99,,,-99.99,,2013-06-06 18:13:00,
2013-06-06 13:23:00,-34.0,-46.0,-100.00,North,0,0.0,-999.0,50,-99.99,,,-99.99,,2013-06-06 18:23:00,
2013-06-06 13:33:00,-36.0,-47.0,-100.00,North,-999,0.0,-999.0,51,-99.99,,,-99.99,,2013-06-06 18:33:00,
2013-06-06 13:43:00,-36.0,-46.0,-100.00,North,0,0.0,-999.0,54,-99.99,,,-99.99,,2013-06-06 18:43:00,
2013-06-06 13:53:00,-36.0,-46.0,-100.00,North,0,0.0,-999.0,56,-99.99,,,-99.99,,2013-06-06 18:53:00,
2013-06-06 14:03:00,-37.0,-47.0,-100.00,North,0,0.0,-999.0,53,-99.99,,,-99.99,,2013-06-06 19:03:00,
2013-06-06 14:13:00,-37.0,-48.0,-100.00,North,0,0.0,-999.0,52,-99.99,,,-99.99,,2013-06-06 19:13:00,
2013-06-06 14:23:00,-37.0,-51.0,-100.00,North,0,0.0,-999.0,43,-99.99,,,-99.99,,2013-06-06 19:23:00,
2013-06-06 14:33:00,-37.0,-49.0,-100.00,North,0,0.0,-999.0,49,-99.99,,,-99.99,,2013-06-06 19:33:00,
2013-06-06 14:43:00,-37.0,-48.0,-100.00,North,0,0.0,-999.0,52,-99.99,,,-99.99,,2013-06-06 19:43:00,
2013-06-06 14:52:00,-37.0,-52.0,-100.00,North,0,0.0,-999.0,41,-99.99,,,-99.99,,2013-06-06 19:52:00,
2013-06-06 15:03:00,-37.0,-48.0,-100.00,North,0,0.0,-999.0,53,-99.99,,,-99.99,,2013-06-06 20:03:00,
2013-06-06 15:13:00,-37.0,-50.0,-100.00,North,0,0.0,-999.0,47,-99.99,,,-99.99,,2013-06-06 20:13:00,
2013-06-06 15:23:00,-37.0,-50.0,-100.00,North,0,0.0,-999.0,48,-99.99,,,-99.99,,2013-06-06 20:23:00,
2013-06-06 15:33:00,-37.0,-53.0,-100.00,North,0,0.0,-999.0,40,-99.99,,,-99.99,,2013-06-06 20:33:00,
2013-06-06 15:42:00,-37.0,-53.0,-100.00,North,0,0.0,-999.0,40,-99.99,,,-99.99,,2013-06-06 20:42:00,
2013-06-06 15:53:00,-37.0,-53.0,-100.00,North,0,0.0,-999.0,40,-99.99,,,-99.99,,2013-06-06 20:53:00,
2013-06-06 16:03:00,-37.0,-55.0,-100.00,North,0,0.0,-999.0,35,-99.99,,,-99.99,,2013-06-06 21:03:00,
2013-06-06 16:13:00,-37.0,-48.0,-100.00,North,0,0.0,-999.0,52,-99.99,,,-99.99,,2013-06-06 21:13:00,
2013-06-06 16:23:00,-37.0,-48.0,-100.00,North,0,0.0,-999.0,54,-99.99,,,-99.99,,2013-06-06 21:23:00,
2013-06-06 16:33:00,-37.0,-48.0,-100.00,North,0,0.0,-999.0,54,-99.99,,,-99.99,,2013-06-06 21:33:00,
2013-06-06 16:43:00,-37.0,-47.0,-100.00,North,0,0.0,-999.0,55,-99.99,,,-99.99,,2013-06-06 21:43:00,
2013-06-06 16:53:00,-37.0,-47.0,-100.00,North,0,0.0,-999.0,55,-99.99,,,-99.99,,2013-06-06 21:53:00,
2013-06-06 17:03:00,-37.0,-48.0,-100.00,North,0,0.0,-999.0,53,-99.99,,,-99.99,,2013-06-06 22:03:00,
2013-06-06 17:13:00,-37.0,-51.0,-100.00,North,0,0.0,-999.0,44,-99.99,,,-99.99,,2013-06-06 22:13:00,
2013-06-06 17:23:00,-37.0,-51.0,-100.00,North,0,0.0,-999.0,43,-99.99,,,-99.99,,2013-06-06 22:23:00,
2013-06-06 17:33:00,-37.0,-50.0,-100.00,North,0,0.0,-999.0,47,-99.99,,,-99.99,,2013-06-06 22:33:00,
2013-06-06 17:43:00,-37.0,-51.0,-100.00,North,0,0.0,-999.0,44,-99.99,,,-99.99,,2013-06-06 22:43:00,
2013-06-06 17:53:00,-37.0,-51.0,-100.00,North,0,0.0,-999.0,44,-99.99,,,-99.99,,2013-06-06 22:53:00,
2013-06-06 18:02:00,-37.0,-50.0,-100.00,North,0,0.0,-999.0,45,-99.99,,,-99.99,,2013-06-06 23:02:00,
2013-06-06 18:12:00,-37.0,-51.0,-100.00,North,0,0.0,-999.0,42,-99.99,,,-99.99,,2013-06-06 23:12:00,
2013-06-06 18:22:00,-37.0,-51.0,-100.00,North,0,0.0,-999.0,44,-99.99,,,-99.99,,2013-06-06 23:22:00,
2013-06-06 18:33:00,-37.0,-51.0,-100.00,North,0,0.0,-999.0,42,-99.99,,,-99.99,,2013-06-06 23:33:00,
2013-06-06 18:43:00,-37.0,-52.0,-100.00,North,-999,0.0,-999.0,41,-99.99,,,-99.99,,2013-06-06 23:43:00,
2013-06-06 18:52:00,-37.0,-52.0,-100.00,North,-999,0.0,-999.0,41,-99.99,,,-99.99,,2013-06-06 23:52:00,
2013-06-06 19:02:00,-37.0,-50.0,-100.00,North,0,0.0,-999.0,45,-99.99,,,-99.99,,2013-06-07 00:02:00,
2013-06-06 19:12:00,-37.0,-50.0,-100.00,North,0,0.0,-999.0,45,-99.99,,,-99.99,,2013-06-07 00:12:00,
2013-06-06 19:22:00,-37.0,-51.0,-100.00,North,0,0.0,-999.0,45,-99.99,,,-99.99,,2013-06-07 00:22:00,
2013-06-06 19:32:00,-37.0,-51.0,-100.00,North,0,0.0,-999.0,45,-99.99,,,-99.99,,2013-06-07 00:32:00,
2013-06-06 19:42:00,-37.0,-50.0,-100.00,North,0,0.0,-999.0,47,-99.99,,,-99.99,,2013-06-07 00:42:00,
2013-06-06 19:52:00,-37.0,-57.0,-100.00,North,0,0.0,-999.0,30,-99.99,,,-99.99,,2013-06-07 00:52:00,
2013-06-06 20:02:00,-37.0,-53.0,-100.00,North,0,0.0,-999.0,40,-99.99,,,-99.99,,2013-06-07 01:02:00,
2013-06-06 20:12:00,-37.0,-53.0,-100.00,North,0,0.0,-999.0,39,-99.99,,,-99.99,,2013-06-07 01:12:00,
2013-06-06 20:22:00,-38.0,-79.0,-100.00,North,0,0.0,-999.0,7,-99.99,,,-99.99,,2013-06-07 01:22:00,
2013-06-06 20:32:00,-37.0,-69.0,-100.00,North,0,0.0,-999.0,14,-99.99,,,-99.99,,2013-06-07 01:32:00,
2013-06-06 20:42:00,-38.0,-47.0,-100.00,North,0,0.0,-999.0,57,-99.99,,,-99.99,,2013-06-07 01:42:00,
2013-06-06 20:52:00,-38.0,-60.0,-100.00,North,-999,0.0,-999.0,25,-99.99,,,-99.99,,2013-06-07 01:52:00,
2013-06-06 21:12:00,-38.0,-75.0,-100.00,North,0,0.0,-999.0,9,-99.99,,,-99.99,,2013-06-07 02:12:00,
2013-06-06 21:22:00,-37.0,-71.0,-100.00,North,0,0.0,-999.0,12,-99.99,,,-99.99,,2013-06-07 02:22:00,
2013-06-06 21:32:00,-37.0,-69.0,-100.00,North,0,0.0,-999.0,14,-99.99,,,-99.99,,2013-06-07 02:32:00,
2013-06-06 21:42:00,-37.0,-69.0,-100.00,North,0,0.0,-999.0,14,-99.99,,,-99.99,,2013-06-07 02:42:00,
2013-06-06 21:52:00,-37.0,-69.0,-100.00,North,0,0.0,-999.0,13,-99.99,,,-99.99,,2013-06-07 02:52:00,
2013-06-06 22:02:00,-36.0,-65.0,-100.00,North,0,0.0,-999.0,17,-99.99,,,-99.99,,2013-06-07 03:02:00,
2013-06-06 22:12:00,-36.0,-62.0,-100.00,North,0,0.0,-999.0,20,-99.99,,,-99.99,,2013-06-07 03:12:00,
2013-06-06 22:22:00,-35.0,-66.0,-100.00,North,0,0.0,-999.0,14,-99.99,,,-99.99,,2013-06-07 03:22:00,
2013-06-06 22:33:00,1.0,-33.0,-100.00,North,0,0.0,-999.0,17,-99.99,,,-99.99,,2013-06-07 03:33:00,
2013-06-06 22:43:00,12.0,-34.0,-100.00,North,0,0.0,-999.0,10,-99.99,,,-99.99,,2013-06-07 03:43:00,
2013-06-06 22:53:00,12.0,-34.0,-100.00,North,0,0.0,-999.0,10,-99.99,,,-99.99,,2013-06-07 03:53:00,
2013-06-06 23:03:00,43.0,28.0,-100.00,North,0,0.0,-999.0,54,-99.99,,,-99.99,,2013-06-07 04:03:00,
2013-06-06 23:12:00,53.0,45.0,-100.00,North,0,0.0,-999.0,74,-99.99,,,-99.99,,2013-06-07 04:12:00,
2013-06-06 23:23:00,52.0,46.0,-100.00,North,0,0.0,-999.0,81,-99.99,,,-99.99,,2013-06-07 04:23:00,
2013-06-06 23:33:00,32.0,25.0,-100.00,North,0,0.0,-999.0,74,-99.99,,,-99.99,,2013-06-07 04:33:00,
2013-06-06 23:42:00,55.0,53.0,-100.00,North,0,0.0,-999.0,90,-99.99,,,-99.99,,2013-06-07 04:42:00,
2013-06-06 23:53:00,55.0,53.0,-100.00,North,0,0.0,-999.0,90,-99.99,,,-99.99,,2013-06-07 04:53:00,